Terminal Aerodrome Forecast
Issued by NWS Louisville, KY

Home | Current Version | Previous Version | Text Only | Print | Product List | Glossary On
Versions: 1 2 3 4 5 6 7 8 9 10 11 12 13 14 15 16 17 18
000
FTUS43 KLMK 260500
TAFBWG
TAF
KBWG 260520Z 2606/2706 VRB03KT P6SM SCT250
     FM261500 18005KT P6SM BKN150
     FM270000 22004KT P6SM VCSH OVC050=

USA.gov is the U.S. government's official web portal to all federal, state and local government web resources and services.